Weather History for Missoula, MT

Change the Weather History Date:

Friday, November 19, 2010

  Actual Average Record
Temperature  
Mean Temperature 25 °F 32 °F  
Max Temperature 30 °F 40 °F 65 °F (1897)
Min Temperature 19 °F 24 °F -4 °F (1900)
Degree Days  
Heating Degree Days 40 33  
Month to date heating degree days 518 560  
Since 1 July heating degree days 1355 1502  
Cooling Degree Days 0 0  
Month to date cooling degree days 0 0  
Year to date cooling degree days 244 332  
Moisture  
Dew Point 19 °F    
Average Humidity 74    
Maximum Humidity 84    
Minimum Humidity 63    
Precipitation  
Precipitation 0.00 in 0.04 in 0.71 in (1996)
Month to date precipitation 0.84 0.63  
Year to date precipitation 14.22 12.71  
Snow  
Snow 0.00 in - - ()
Month to date snowfall 0.5  
Year to date snowfall 9.3  
Since 1 July snowfall 0.5  
Snow Depth 0.00 in    
Sea Level Pressure  
Sea Level Pressure 29.96 in    
Wind  
Wind Speed 5 mph (SE)    
Max Wind Speed 15 mph    
Max Gust Speed 17 mph    
Visibility 10 miles    
Events      
T = Trace of Precipitation, MM = Missing Value Source: NWS Daily Summary

Daily Weather History Graph

Daily Weather History Graph

Search for Another Location

Airport:

Trip Planner

Search our weather history database for the weather conditions in past years. The results will help you decide how hot, cold, wet, or windy it might be!

Date:

Astronomy

Nov. 19, 2010 Rise Set
Actual Time 7:45 AM MST 4:57 PM MST
Civil Twilight 7:11 AM MST 5:31 PM MST
Nautical Twilight 6:34 AM MST 6:08 PM MST
Astronomical Twilight 5:58 AM MST 6:44 PM MST
Moon 3:31 PM MST (11/19) 5:44 AM MST (11/19)
Length of Visible Light 10h 19m
Length of Day
9h 12m
Waxing Gibbous, 96% of the Moon is Illuminated
Nov 19
Waxing Gibbous
Nov 21
Full
Nov 28
Last Quarter
Dec 5
New
Dec 13
First Quarter

Hourly Weather History & Observations

Time (MST) Temp. Windchill Dew Point Humidity Pressure Visibility Wind Dir Wind Speed Gust Speed Precip Events Conditions
12:53 AM 27.0 °F 18.7 °F 23.0 °F 85% 29.99 in 10.0 mi ESE 8.1 mph - N/A   Overcast
1:53 AM 26.1 °F 16.2 °F 21.9 °F 84% 29.99 in 10.0 mi SE 10.4 mph - N/A   Overcast
2:53 AM 25.0 °F 14.2 °F 19.9 °F 81% 30.00 in 10.0 mi SE 11.5 mph - N/A   Mostly Cloudy
3:53 AM 25.0 °F 14.2 °F 19.0 °F 78% 30.00 in 10.0 mi SE 11.5 mph - N/A   Clear
4:53 AM 24.1 °F 16.0 °F 19.0 °F 81% 30.01 in 10.0 mi ESE 6.9 mph - N/A   Scattered Clouds
5:53 AM 24.1 °F 12.5 °F 19.0 °F 81% 30.01 in 10.0 mi SE 12.7 mph - N/A   Mostly Cloudy
6:53 AM 23.0 °F 13.1 °F 18.0 °F 81% 30.01 in 10.0 mi SE 9.2 mph - N/A   Clear
7:53 AM 23.0 °F 13.1 °F 17.1 °F 78% 30.01 in 10.0 mi SE 9.2 mph - N/A   Clear
8:53 AM 23.0 °F 12.4 °F 17.1 °F 78% 30.01 in 10.0 mi SE 10.4 mph - N/A   Clear
9:53 AM 25.0 °F 18.1 °F 17.1 °F 72% 30.00 in 10.0 mi SE 5.8 mph - N/A   Overcast
10:53 AM 27.0 °F - 18.0 °F 69% 29.99 in 10.0 mi Calm Calm - N/A   Clear
11:53 AM 28.9 °F - 19.0 °F 67% 29.96 in 10.0 mi Calm Calm - N/A   Scattered Clouds
12:53 PM 28.9 °F - 19.0 °F 67% 29.94 in 10.0 mi Calm Calm - N/A   Clear
1:53 PM 30.0 °F 24.1 °F 21.0 °F 69% 29.91 in 10.0 mi West 5.8 mph - N/A   Mostly Cloudy
2:53 PM 30.0 °F - 19.9 °F 66% 29.90 in 10.0 mi Calm Calm - N/A   Partly Cloudy
3:53 PM 30.0 °F 26.5 °F 21.0 °F 69% 29.89 in 10.0 mi WNW 3.5 mph - N/A   Mostly Cloudy
4:53 PM 28.0 °F 22.8 °F 21.9 °F 78% 29.90 in 10.0 mi West 4.6 mph - N/A   Mostly Cloudy
5:53 PM 26.1 °F 21.9 °F 19.9 °F 78% 29.91 in 10.0 mi NNE 3.5 mph - N/A   Partly Cloudy
6:53 PM 27.0 °F 21.6 °F 19.9 °F 75% 29.91 in 10.0 mi East 4.6 mph - N/A   Clear
7:53 PM 26.1 °F - 19.9 °F 78% 29.91 in 10.0 mi Calm Calm - N/A   Clear
8:53 PM 21.0 °F 16.2 °F 18.0 °F 88% 29.93 in 10.0 mi NNW 3.5 mph - N/A   Clear
9:53 PM 19.9 °F 12.1 °F 16.0 °F 85% 29.93 in 10.0 mi NNW 5.8 mph - N/A   Clear
10:53 PM 19.0 °F - 16.0 °F 88% 29.94 in 10.0 mi Calm Calm - N/A   Clear
11:53 PM 19.9 °F - 17.1 °F 89% 29.91 in 10.0 mi Calm Calm - N/A   Clear